FENGYUN 1C DEB, 31188

Orbit data source: Space-Track

FENGYUN 1C DEB, 31188 is space debris in SSO originally from a launch on Mon, 10 May 1999 UTC launched from the Taiyaun Space Center, China (TSC). Fengyun 1C debris stems from the Chinese weather satellite Fengyun-1C, which was intentionally destroyed by a Chinese anti-satellite missile in 2007. This event dramatically increased the amount of space debris, with thousands of trackable fragments posing hazards to satellites and human spaceflight. The Fengyun 1C debris cloud has become a focal point in discussions about space sustainability and the need for international regulations to prevent the creation of new debris.

Loading next visibility...
Identifier
31188, 1999-025BJS
Orbit
SSO
Country
Flag of CNCN / PRC
Related business
Manufacturer
Unknown
Mission
Spacecraft
Bus & Motor
Unknown
Mass
Unknown
Launch date (UTC)
1999-05-10 (27 years ago)
Launch vehicle
Unknown
Launch site
Taiyaun Space Center, China (TSC)
Object type
Payload
Rocket body
Debris
Shape & HBR
Unknown shape, 0.1 m
Radar Cross Section
Small (<0.1 m²)

Expand to show TLE details & history
Last TLE update: 21 hours ago

TLE from 21 hours ago
0 FENGYUN 1C DEB
1 31188U 99025BJS 26254.85630119  .00001785  00000-0  76196-3 0  9991
2 31188  98.7309 326.3152 0059635 177.2370 247.1100 14.25344681  2102
Epoch: 2026-09-11T20:33Z
TLE epoch observation values (Epoch: 2026-09-11T20:33:04.422Z)
Latitude
62.49833°
Longitude
10.10958°
Altitude
834.911 km
Speed
7.433 km/s
True Right ascension
20h 37m 00s
True Declination
62° 21' 31"
Sunlit
Object was in daylight at epoch
Visualization orbit readout
Latitude
Unknown
Longitude
Unknown
Altitude
Unknown
Speed
Unknown
Apparent Right ascension
Unknown
Apparent Declination
Unknown
Sunlit
N/A
Visualization observer readout
Local Sidereal Time
10:18:40
Azimuth
Unknown
Elevation
Unknown
Doppler factor
Unknown
Orbital elements
Apogee altitude
847.32 km
Perigee altitude
761.653 km
Semi-major axis
7,182.623 km
Eccentricity
0.00596
Inclination
98.7309°
RAAN
326.3152°
Arg. of periapsis
177.237°
True anomaly
246.48228°
Mean anomaly
247.11°
Eccentric anomaly
246.79596°
Mean motion
3.56548 °/min
Orbital period
100.97 mins
BSTAR
0.00076196
Loading maneuver chart data...
Computing Atmospheric mass density...

Documentation

Showing up to 5 results
|